TimeEST,TemperatureF,Dew PointF,Humidity,Sea Level PressureIn,VisibilityMPH,Wind Direction,Wind SpeedMPH,Gust SpeedMPH,PrecipitationIn,Events,Conditions,WindDirDegrees,DateUTC
12:16 AM,32.0,30.2,93,29.95,5.0,Calm,Calm,-,N/A,,Overcast,0,2010-01-19 05:16:00
12:36 AM,30.2,30.2,100,29.95,4.0,SW,3.5,-,N/A,,Overcast,220,2010-01-19 05:36:00
12:55 AM,30.2,30.2,100,29.94,3.0,SW,3.5,-,N/A,,Overcast,220,2010-01-19 05:55:00
1:16 AM,30.2,30.2,100,29.95,3.0,Calm,Calm,-,N/A,,Overcast,0,2010-01-19 06:16:00
1:36 AM,30.2,30.2,100,29.94,4.0,SW,4.6,-,N/A,,Overcast,220,2010-01-19 06:36:00
1:55 AM,30.2,30.2,100,29.95,4.0,SW,4.6,-,N/A,,Overcast,220,2010-01-19 06:55:00
2:16 AM,30.2,30.2,100,29.95,4.0,SSW,4.6,-,N/A,,Overcast,210,2010-01-19 07:16:00
2:36 AM,30.2,30.2,100,29.95,4.0,SSW,4.6,-,N/A,,Overcast,210,2010-01-19 07:36:00
2:55 AM,30.2,30.2,100,29.94,4.0,SSW,3.5,-,N/A,,Overcast,210,2010-01-19 07:55:00
3:16 AM,30.2,30.2,100,29.94,4.0,SSW,5.8,-,N/A,,Overcast,210,2010-01-19 08:16:00
3:36 AM,30.2,30.2,100,29.94,4.0,SW,6.9,-,N/A,,Overcast,220,2010-01-19 08:36:00
3:55 AM,30.2,30.2,100,29.93,4.0,SW,5.8,-,N/A,,Overcast,220,2010-01-19 08:55:00
4:16 AM,30.2,30.2,100,29.93,4.0,SSW,6.9,-,N/A,,Overcast,210,2010-01-19 09:16:00
4:36 AM,30.2,30.2,100,29.93,3.0,SSW,6.9,-,N/A,,Overcast,210,2010-01-19 09:36:00
4:55 AM,30.2,30.2,100,29.93,3.0,SW,4.6,-,N/A,,Overcast,230,2010-01-19 09:55:00
5:16 AM,30.2,30.2,100,29.93,4.0,Calm,Calm,-,N/A,,Overcast,0,2010-01-19 10:16:00
5:36 AM,30.2,30.2,100,29.93,4.0,WSW,3.5,-,N/A,,Overcast,240,2010-01-19 10:36:00
5:55 AM,30.2,30.2,100,29.93,4.0,SW,3.5,-,N/A,,Overcast,230,2010-01-19 10:55:00
6:16 AM,30.2,30.2,100,29.94,4.0,Calm,Calm,-,N/A,,Overcast,0,2010-01-19 11:16:00
6:36 AM,30.2,30.2,100,29.94,4.0,West,3.5,-,N/A,,Overcast,260,2010-01-19 11:36:00
6:55 AM,30.2,30.2,100,29.94,4.0,WSW,3.5,-,N/A,,Overcast,240,2010-01-19 11:55:00
7:16 AM,30.2,30.2,100,29.95,5.0,West,4.6,-,N/A,,Overcast,270,2010-01-19 12:16:00
7:36 AM,30.2,30.2,100,29.95,5.0,West,4.6,-,N/A,,Overcast,280,2010-01-19 12:36:00
7:55 AM,30.2,28.4,93,29.95,7.0,WSW,3.5,-,N/A,,Overcast,240,2010-01-19 12:55:00
8:16 AM,30.2,28.4,93,29.95,5.0,WSW,3.5,-,N/A,,Overcast,250,2010-01-19 13:16:00
8:36 AM,30.2,28.4,93,29.95,7.0,WSW,3.5,-,N/A,,Overcast,240,2010-01-19 13:36:00
8:55 AM,30.2,28.4,93,29.96,7.0,SW,4.6,-,N/A,,Overcast,230,2010-01-19 13:55:00
9:16 AM,30.2,28.4,93,29.97,7.0,West,3.5,-,N/A,,Overcast,260,2010-01-19 14:16:00
9:36 AM,32.0,28.4,87,29.97,7.0,WSW,4.6,-,N/A,,Overcast,240,2010-01-19 14:36:00
9:55 AM,32.0,28.4,87,29.97,7.0,SW,3.5,-,N/A,,Overcast,230,2010-01-19 14:55:00
10:16 AM,32.0,28.4,87,29.97,7.0,WSW,3.5,-,N/A,,Overcast,250,2010-01-19 15:16:00
10:36 AM,32.0,28.4,87,29.97,7.0,SW,3.5,-,N/A,,Overcast,230,2010-01-19 15:36:00
10:55 AM,32.0,28.4,87,29.97,7.0,WSW,4.6,-,N/A,,Overcast,250,2010-01-19 15:55:00
11:16 AM,32.0,28.4,87,29.98,10.0,WSW,3.5,-,N/A,,Overcast,240,2010-01-19 16:16:00
11:36 AM,32.0,28.4,87,29.98,7.0,SW,5.8,-,N/A,,Overcast,220,2010-01-19 16:36:00
11:55 AM,32.0,28.4,87,29.97,7.0,West,5.8,-,N/A,,Overcast,270,2010-01-19 16:55:00
12:16 PM,32.0,26.6,80,29.96,10.0,West,5.8,-,N/A,,Overcast,260,2010-01-19 17:16:00
12:36 PM,32.0,28.4,87,29.96,10.0,West,5.8,-,N/A,,Overcast,260,2010-01-19 17:36:00
12:55 PM,32.0,28.4,87,29.96,10.0,West,4.6,-,N/A,,Overcast,260,2010-01-19 17:55:00
1:16 PM,32.0,26.6,80,29.95,10.0,West,6.9,-,N/A,,Overcast,270,2010-01-19 18:16:00
1:36 PM,32.0,26.6,80,29.95,10.0,West,5.8,-,N/A,,Overcast,270,2010-01-19 18:36:00
1:55 PM,33.8,26.6,75,29.95,10.0,West,4.6,-,N/A,,Overcast,270,2010-01-19 18:55:00
2:16 PM,33.8,28.4,81,29.94,10.0,West,5.8,-,N/A,,Overcast,280,2010-01-19 19:16:00
2:37 PM,33.8,26.6,75,29.94,10.0,West,9.2,-,N/A,,Overcast,280,2010-01-19 19:37:00
2:55 PM,33.8,26.6,75,29.94,10.0,WNW,6.9,-,N/A,,Overcast,290,2010-01-19 19:55:00
3:16 PM,33.8,26.6,75,29.94,10.0,WNW,8.1,-,N/A,,Overcast,300,2010-01-19 20:16:00
3:36 PM,33.8,26.6,75,29.94,10.0,WNW,6.9,-,N/A,,Overcast,290,2010-01-19 20:36:00
3:55 PM,33.8,26.6,75,29.94,10.0,West,6.9,-,N/A,,Overcast,270,2010-01-19 20:55:00
4:16 PM,33.8,26.6,75,29.94,10.0,West,5.8,-,N/A,,Overcast,280,2010-01-19 21:16:00
4:36 PM,33.8,26.6,75,29.95,10.0,WNW,4.6,-,N/A,,Overcast,290,2010-01-19 21:36:00
4:55 PM,33.8,28.4,81,29.95,10.0,West,5.8,-,N/A,,Overcast,280,2010-01-19 21:55:00
5:16 PM,33.8,26.6,75,29.95,10.0,WNW,4.6,-,N/A,,Overcast,300,2010-01-19 22:16:00
5:36 PM,33.8,26.6,75,29.95,10.0,NNW,3.5,-,N/A,,Overcast,330,2010-01-19 22:36:00
5:55 PM,33.8,24.8,70,29.96,10.0,NNW,6.9,-,N/A,,Overcast,330,2010-01-19 22:55:00
6:16 PM,33.8,24.8,70,29.97,10.0,WNW,5.8,-,N/A,,Overcast,300,2010-01-19 23:16:00
6:36 PM,32.0,26.6,80,29.97,10.0,WNW,6.9,-,N/A,,Overcast,290,2010-01-19 23:36:00
6:55 PM,32.0,26.6,80,29.97,10.0,NW,8.1,-,N/A,,Overcast,310,2010-01-19 23:55:00
7:16 PM,32.0,26.6,80,29.98,10.0,NW,3.5,-,N/A,,Overcast,320,2010-01-20 00:16:00
7:36 PM,32.0,26.6,80,29.98,10.0,Calm,Calm,-,N/A,,Overcast,0,2010-01-20 00:36:00
7:55 PM,32.0,26.6,80,29.98,10.0,Calm,Calm,-,N/A,,Overcast,0,2010-01-20 00:55:00
8:16 PM,32.0,28.4,87,29.99,10.0,West,3.5,-,N/A,,Overcast,280,2010-01-20 01:16:00
8:37 PM,32.0,26.6,80,29.99,10.0,West,4.6,-,N/A,,Overcast,270,2010-01-20 01:37:00
8:55 PM,32.0,28.4,87,29.99,10.0,West,3.5,-,N/A,,Overcast,260,2010-01-20 01:55:00
9:16 PM,32.0,28.4,87,29.99,10.0,West,3.5,-,N/A,,Overcast,280,2010-01-20 02:16:00
9:36 PM,32.0,28.4,87,29.99,10.0,Calm,Calm,-,N/A,,Overcast,0,2010-01-20 02:36:00
9:55 PM,32.0,28.4,87,29.99,10.0,Calm,Calm,-,N/A,,Overcast,0,2010-01-20 02:55:00
10:16 PM,32.0,26.6,80,29.99,10.0,Calm,Calm,-,N/A,,Overcast,0,2010-01-20 03:16:00
10:36 PM,32.0,28.4,87,29.99,10.0,West,3.5,-,N/A,,Overcast,280,2010-01-20 03:36:00
10:55 PM,32.0,28.4,87,29.99,10.0,West,3.5,-,N/A,,Overcast,260,2010-01-20 03:55:00
11:16 PM,32.0,28.4,87,29.99,10.0,Calm,Calm,-,N/A,,Overcast,0,2010-01-20 04:16:00
11:36 PM,32.0,28.4,87,29.99,10.0,Calm,Calm,-,N/A,,Overcast,0,2010-01-20 04:36:00
11:55 PM,32.0,28.4,87,29.99,10.0,Calm,Calm,-,N/A,,Overcast,0,2010-01-20 04:55:00